PDT,Max TemperatureF,Mean TemperatureF,Min TemperatureF,Max Dew PointF,MeanDew PointF,Min DewpointF,Max Humidity, Mean Humidity, Min Humidity, Max Sea Level PressureIn, Mean Sea Level PressureIn, Min Sea Level PressureIn, Max VisibilityMiles, Mean VisibilityMiles, Min VisibilityMiles, Max Wind SpeedMPH, Mean Wind SpeedMPH, Max Gust SpeedMPH,PrecipitationIn, CloudCover, Events, WindDirDegrees
2014-3-1,37,32,26,28,17,11,78,57,42,29.97,29.84,29.60,10,10,3,18,11,23,0.00,8,Snow,19
2014-3-2,28,26,25,25,22,16,92,81,66,29.99,29.91,29.85,10,10,7,10,6,,0.06,7,Rain,38
2014-3-3,45,34,24,39,32,23,96,86,76,29.94,29.86,29.82,10,10,9,12,3,,0.03,3,Rain,239
2014-3-4,64,50,37,43,39,34,89,70,40,30.01,29.96,29.90,10,10,10,16,6,22,0.00,1,,212
2014-3-5,69,58,46,52,46,41,96,75,42,29.88,29.69,29.49,10,10,10,22,6,29,0.13,7,Rain,181
2014-3-6,63,54,44,47,39,36,79,61,37,30.06,29.79,29.61,10,10,10,28,13,41,0.00,3,,229
2014-3-7,61,49,35,39,37,33,92,63,41,30.26,30.19,30.09,10,10,10,20,11,26,0.00,1,,222
2014-3-8,63,44,28,48,39,27,100,79,58,30.17,30.02,29.82,10,10,10,15,4,,0.02,4,Rain,162
2014-3-9,66,59,51,52,48,43,89,70,48,29.94,29.91,29.82,10,10,10,18,11,23,0.05,7,Rain,231
2014-3-10,61,50,44,48,41,36,89,69,51,30.33,30.04,29.90,10,10,10,25,16,33,0.05,4,Rain,239
2014-3-11,59,44,32,36,32,29,89,65,34,30.57,30.48,30.35,10,10,10,13,7,,0.00,0,,235
2014-3-12,64,44,26,34,30,25,96,67,26,30.46,30.30,30.11,10,10,10,8,3,,0.00,0,,133
2014-3-13,64,46,28,37,33,27,96,62,31,30.13,30.06,29.98,10,10,10,13,5,,0.00,0,,164
2014-3-14,64,55,45,48,38,29,90,56,29,30.30,30.08,29.99,10,10,10,34,14,47,0.08,4,Rain,228
2014-3-15,66,52,37,39,36,32,86,62,33,30.36,30.29,30.20,10,10,10,9,5,,0.00,1,,171
2014-3-16,70,56,42,43,39,36,80,58,30,30.23,30.03,29.80,10,10,10,18,8,24,0.00,1,Rain,219
2014-3-17,55,46,36,39,30,25,82,57,31,30.27,30.08,29.79,10,10,10,31,21,38,0.02,2,Rain,248
2014-3-18,57,40,26,31,28,23,92,61,29,30.33,30.26,30.15,10,10,10,9,6,,0.00,0,,189
2014-3-19,64,44,27,35,31,25,92,61,35,30.15,30.06,29.99,10,10,10,29,9,41,0.00,2,,235
2014-3-20,55,42,30,30,25,21,79,51,28,30.30,30.24,30.14,10,10,10,22,12,30,0.00,1,,253
2014-3-21,54,40,25,28,22,19,88,58,25,30.31,30.28,30.22,10,10,10,10,5,,0.00,0,,137
2014-3-22,57,38,19,25,21,16,89,55,24,30.36,30.27,30.17,10,10,10,9,4,,0.00,0,,138
2014-3-23,61,43,26,31,27,21,85,58,29,30.30,30.23,30.17,10,10,10,10,3,,0.00,0,,127
2014-3-24,66,47,28,33,28,24,92,55,23,30.23,30.12,29.93,10,10,10,15,6,,0.00,0,,68
2014-3-25,59,45,33,47,35,29,85,67,33,29.90,29.72,29.63,10,10,9,16,6,25,0.03,2,Rain,199
2014-3-26,60,49,39,44,39,35,90,72,41,29.67,29.59,29.50,10,10,4,12,5,,0.14,5,Rain,177
2014-3-27,61,50,39,44,38,35,86,70,42,29.94,29.74,29.60,10,10,10,25,10,39,0.10,4,Rain,233
2014-3-28,60,48,37,50,43,33,93,85,64,29.94,29.85,29.77,10,10,8,13,6,,0.25,6,Rain,156
2014-3-29,66,52,41,46,39,32,97,67,29,29.86,29.81,29.74,10,10,10,26,9,36,0.00,3,Rain,239
2014-3-30,59,44,32,36,32,25,96,61,28,29.98,29.92,29.87,10,10,10,23,10,32,0.00,0,,230
2014-3-31,64,46,30,38,34,29,92,63,34,29.98,29.83,29.66,10,10,10,16,7,,0.00,2,,78